Theta_e
313 317 323 325 328 334 336 341 342 363 362 359 355 354 352 354 354 351 356 352 350 350 347 347 349 347 344 343 344 343 343 338 343 340 339 342 348 348 348 350 347 346 348
315 316 319 326 328 332 340 341 343 349 360 355 357 355 353 353 354 355 353 355 352 351 347 347 343 344 342 343 345 341 338 341 343 336 336 330 336 346 350 347 346 344 348
316 319 322 323 324 330 336 337 339 345 347 358 357 356 355 353 350 351 352 353 353 353 349 348 344 343 343 342 343 346 342 336 338 343 336 330 329 338 346 347 347 345 345
315 317 319 322 324 326 328 331 339 342 343 343 352 352 348 345 346 349 351 349 354 354 350 349 348 345 345 343 345 346 344 342 336 338 341 346 341 332 331 341 343 341 339
313 313 316 318 322 325 330 334 338 337 339 343 339 345 344 349 350 351 351 352 353 353 352 351 350 346 346 348 346 345 347 344 339 338 345 340 338 336 331 325 332 335 336
313 315 318 320 321 323 324 328 334 337 338 340 345 339 342 344 345 346 345 346 348 351 352 352 352 353 349 351 349 351 349 347 343 340 345 339 334 331 329 327 327 327 329
311 312 313 315 318 319 321 322 325 327 332 332 334 337 340 342 343 345 344 345 345 348 349 349 350 351 351 351 352 349 350 349 346 343 342 343 338 338 333 330 326 324 327
312 312 313 315 314 317 320 321 322 324 328 330 329 331 332 338 340 345 346 345 344 345 349 351 350 351 352 352 351 349 348 350 346 346 343 343 340 339 337 332 328 324 326
311 311 311 313 314 316 319 320 321 323 324 325 330 332 332 331 337 344 346 346 348 348 347 351 350 351 351 352 350 348 347 348 347 346 347 344 342 341 340 339 334 328 322
309 311 312 314 316 317 317 322 323 321 322 324 327 326 330 331 333 342 344 346 346 347 348 348 350 350 351 352 350 348 349 350 349 347 344 343 342 342 341 339 337 337 333
308 309 311 313 314 315 315 317 318 317 314 319 323 326 325 330 330 336 341 344 344 346 346 349 350 348 350 349 348 347 348 345 345 345 344 342 345 339 339 339 340 339 339
309 309 310 311 311 312 313 314 317 317 316 317 320 323 323 329 331 334 339 342 342 344 346 333 337 346 342 337 341 342 345 344 345 344 344 342 341 341 342 341 339 337 337
309 309 309 310 309 310 312 312 313 312 314 316 316 321 321 325 327 331 337 342 342 344 333 328 325 322 324 325 329 339 343 343 345 344 343 342 342 340 340 336 335 336 335
305 306 306 306 308 308 309 309 310 311 313 314 312 318 320 324 322 328 334 338 340 335 323 323 323 324 320 320 331 340 341 340 341 342 340 339 338 336 336 335 334 334 332
302 303 304 304 306 306 307 309 310 311 311 309 310 314 320 322 322 323 328 334 326 324 328 322 323 331 321 330 334 334 334 337 337 338 337 337 329 322 323 328 328 326 323
301 302 303 304 304 305 305 305 304 305 308 307 308 311 315 318 319 320 320 317 321 319 323 329 322 322 333 316 316 327 332 334 332 330 331 327 321 319 315 314 314 319 324
300 300 300 300 301 301 303 302 302 303 304 304 307 309 310 313 317 317 317 317 318 325 328 326 326 326 325 310 310 318 331 332 331 330 331 324 324 322 327 314 311 311 309
297 297 297 298 299 300 300 300 301 303 302 301 304 306 309 309 314 316 316 317 316 320 329 328 327 327 324 306 307 314 332 332 333 331 329 326 325 323 323 323 323 325 327
297 297 297 297 297 297 298 299 300 301 300 302 302 304 308 308 310 315 316 318 314 315 330 331 330 328 316 302 306 319 331 328 328 328 328 328 326 305 305 321 320 321 324
296 294 294 294 294 295 296 296 297 297 299 301 302 304 307 307 307 314 315 315 315 314 321 331 330 320 320 300 304 320 325 325 324 326 327 309 319 307 303 319 321 320 322
294 294 293 292 292 293 293 292 294 294 297 299 303 303 304 305 310 308 318 313 314 315 317 324 331 326 318 309 300 307 322 322 321 321 323 323 304 299 299 299 318 319 320
291 292 291 291 293 294 293 292 292 295 297 297 298 301 303 304 307 307 313 316 312 311 312 319 322 326 318 307 299 299 307 310 319 319 321 314 299 299 295 298 306 298 303
290 291 291 292 293 294 294 293 293 295 296 296 295 296 301 302 304 305 307 313 313 310 310 315 319 323 318 312 301 298 298 299 317 319 301 298 294 296 298 296 295 293 311
290 292 292 291 292 294 295 296 297 297 296 295 295 296 297 301 304 303 307 310 312 312 312 313 315 319 319 314 309 306 304 300 305 307 313 308 304 299 303 303 303 312 320
291 291 291 290 291 294 294 295 297 298 298 297 295 295 296 298 300 302 304 309 314 313 312 313 314 313 316 317 310 309 311 312 309 312 315 314 314 313 315 316 315 315 317
291 290 290 290 292 293 295 298 299 298 298 296 295 295 296 296 298 301 303 299 298 298 301 302 310 315 307 305 303 301 304 304 300 310 312 312 315 316 316 316 318 320 317
Wind_Speed
10 8 8 7 5 1 3 2 6 6 3 6 9 9 11 11 10 12 12 13 15 15 14 8 7 10 9 7 7 6 7 7 5 1 4 3 4 4 4 3 3 4 6
13 11 8 8 6 6 5 6 5 7 7 7 8 10 10 11 11 10 13 11 16 17 15 13 11 11 11 13 13 13 9 5 7 5 2 3 4 4 5 3 5 6 5
6 6 6 8 8 8 8 8 8 8 7 10 8 8 10 10 9 13 13 16 18 19 19 17 15 13 13 11 10 9 11 9 7 7 5 4 5 4 3 4 3 5 3
8 10 9 12 12 7 5 7 7 7 6 8 7 12 13 14 13 11 13 15 18 20 20 19 18 12 8 11 9 9 8 6 8 3 7 1 2 4 3 3 5 5 4
13 12 12 13 11 9 6 4 3 2 5 7 7 6 14 12 12 12 14 15 14 18 20 18 16 16 11 13 13 12 11 9 5 5 5 1 1 1 2 4 4 2 4
12 13 12 11 12 11 9 8 7 5 6 8 7 10 11 15 13 13 10 12 13 14 18 18 16 15 16 12 12 10 14 12 11 7 8 6 5 5 4 3 3 4 4
4 7 11 13 12 13 13 12 12 10 8 8 9 11 12 14 17 16 12 13 13 12 16 18 17 15 18 19 15 15 15 15 12 12 8 9 7 3 4 3 2 2 3
5 6 8 8 11 10 11 10 12 11 11 9 10 12 15 11 12 16 14 12 12 13 18 15 17 21 19 18 17 13 13 14 12 13 9 8 7 5 4 5 4 3 5
10 10 11 10 8 10 9 12 11 11 10 13 10 10 13 16 15 16 17 14 15 14 18 18 21 22 22 21 18 13 14 13 12 11 10 7 7 8 7 5 4 5 3
13 7 10 8 6 7 9 8 10 12 11 14 11 12 13 13 17 15 17 18 18 21 21 23 27 22 21 19 17 14 18 14 12 9 12 9 6 10 3 4 4 4 5
8 10 10 10 10 9 10 10 9 11 15 14 14 11 15 16 14 16 19 16 18 20 18 22 25 25 20 20 20 18 17 16 13 12 10 9 8 4 4 4 4 4 4
15 13 14 13 12 12 12 14 9 11 14 15 12 11 16 16 13 14 18 18 17 20 23 6 7 19 14 6 17 17 17 15 13 12 10 10 7 7 6 4 5 6 5
19 17 14 15 15 16 14 13 11 15 17 15 15 8 15 13 15 16 13 17 18 20 5 5 11 7 9 11 20 15 11 14 12 11 10 8 7 7 4 6 7 5 4
17 17 17 17 17 17 18 17 17 19 15 14 14 11 11 11 13 15 13 17 19 8 8 5 12 10 6 10 27 16 8 10 11 10 8 8 8 8 8 6 4 2 2
21 20 21 21 21 19 18 17 17 15 16 15 20 14 10 10 12 14 14 17 10 12 13 11 6 11 16 20 23 10 7 7 13 9 10 9 8 11 8 4 3 3 1
23 23 21 21 22 18 17 17 17 17 18 20 17 18 18 12 10 11 11 14 11 9 14 18 21 20 21 24 17 11 9 8 10 9 7 8 10 9 8 5 5 5 3
25 25 26 25 23 22 20 21 20 20 19 21 21 19 18 19 9 7 8 15 19 16 16 18 23 22 11 22 16 15 10 9 9 9 7 8 6 8 6 8 7 5 9
26 28 24 23 21 21 21 19 19 19 18 20 22 20 19 19 16 4 4 3 11 16 7 7 8 10 6 20 19 17 12 10 9 8 8 7 7 6 4 3 3 4 7
24 20 21 22 21 20 20 20 19 19 20 20 18 20 21 19 18 8 9 3 7 16 5 5 6 10 8 11 21 16 10 10 9 8 7 6 4 10 8 3 4 6 6
21 21 23 22 20 18 17 19 18 17 19 19 19 20 18 18 17 14 9 9 3 13 13 3 6 11 12 7 18 14 10 9 7 6 6 7 4 5 9 5 4 5 5
23 22 21 18 18 18 16 18 17 18 16 16 16 16 18 17 18 9 9 7 7 5 12 9 4 11 13 9 9 13 12 9 6 5 4 4 13 10 7 7 5 5 2
23 21 19 18 17 16 15 18 17 16 14 15 15 18 15 14 13 8 11 9 10 4 5 12 5 7 11 15 9 10 12 8 9 6 7 5 9 9 7 6 9 4 3
19 18 17 19 17 15 14 16 16 15 14 14 14 15 16 14 11 9 11 8 9 11 6 12 5 2 4 5 13 12 10 11 3 4 9 14 13 12 7 10 5 3 4
19 18 18 17 17 15 15 14 15 15 15 14 13 12 13 12 13 9 9 8 9 10 15 12 7 4 5 7 10 7 5 9 3 2 4 3 1 1 4 2 6 5 6
19 17 16 16 17 16 16 15 15 13 11 10 11 10 9 12 10 10 8 8 10 9 11 12 10 8 6 4 7 11 7 6 7 5 2 1 2 3 5 6 7 5 6
18 18 17 17 17 17 16 15 12 13 13 8 7 7 6 7 9 9 9 5 3 11 9 10 13 9 7 14 11 17 17 16 15 5 6 7 8 9 8 7 6 5 7
Wind_Direction
215 234 239 246 277 351 143 233 301 283 208 167 199 199 203 215 221 208 211 197 183 191 199 201 188 187 188 199 197 214 196 211 221 204 287 268 203 215 199 201 202 242 226
201 210 197 198 212 223 198 185 237 286 230 204 198 212 208 215 212 217 217 206 188 192 196 197 199 203 193 198 195 201 212 206 184 171 187 242 273 220 178 210 214 213 225
280 280 221 198 200 205 195 192 196 221 259 241 222 223 227 242 232 213 212 211 200 192 190 195 207 206 198 193 218 195 191 195 222 198 167 184 206 149 150 202 228 234 232
28 11 355 20 13 357 266 190 198 195 224 259 253 232 221 221 228 216 213 212 200 188 187 202 209 204 202 201 204 211 198 190 205 216 220 155 143 161 172 163 187 222 245
4 347 356 349 351 346 333 309 335 276 226 209 225 249 261 245 238 231 233 210 192 180 192 201 203 203 213 201 200 202 199 203 209 188 160 196 110 319 147 197 210 253 244
10 359 350 339 351 346 341 346 358 4 347 317 243 230 247 255 251 237 225 225 225 196 199 201 205 203 204 208 199 191 203 200 206 220 183 183 165 200 178 221 241 217 254
2 345 327 332 328 332 334 342 348 331 324 315 313 288 239 248 250 249 227 225 219 219 205 200 203 210 202 201 195 200 198 198 191 206 211 190 197 156 167 175 232 228 283
350 315 295 288 293 296 303 330 320 311 310 305 294 287 286 250 240 237 235 227 221 224 225 218 206 206 210 204 192 197 190 190 202 199 206 196 187 182 182 185 175 251 236
218 242 263 242 271 301 306 310 308 297 298 297 292 279 273 276 247 236 230 229 218 217 219 206 222 216 207 201 191 198 202 190 189 196 187 192 201 199 208 165 172 208 244
294 325 357 316 310 288 273 282 304 293 280 285 278 292 280 263 274 234 230 231 228 226 213 199 212 215 208 196 188 192 195 181 183 192 193 195 213 242 204 166 183 193 217
320 321 302 294 303 284 281 266 286 300 299 298 289 291 305 281 256 266 238 230 233 239 234 206 206 210 207 195 181 187 183 185 186 189 198 197 200 212 169 189 197 208 196
332 337 337 320 312 309 326 321 286 286 284 290 292 307 305 297 316 278 241 237 226 237 237 349 321 209 209 295 206 190 179 172 185 191 189 187 182 202 208 180 201 220 212
342 336 317 317 333 334 320 296 287 289 299 288 296 292 295 310 307 298 249 243 231 235 203 118 90 58 53 15 303 237 172 171 182 174 180 176 180 190 193 219 225 215 221
336 328 323 325 327 323 315 306 322 327 294 276 283 283 288 305 309 299 264 247 240 200 126 126 143 155 147 188 241 225 183 171 183 174 178 189 189 196 194 182 206 233 261
321 320 320 316 310 308 310 316 315 301 311 320 324 289 275 283 305 313 313 270 182 165 151 165 189 157 167 221 218 194 184 157 163 165 168 185 134 102 103 114 72 53 346
317 313 311 320 319 313 304 299 301 307 312 309 307 302 297 274 286 309 326 328 212 187 178 168 163 230 211 183 190 166 142 134 128 136 139 121 124 131 144 172 209 216 221
319 317 310 305 299 297 297 293 290 294 287 290 292 292 291 294 263 303 345 315 332 180 187 194 179 191 183 155 161 144 140 139 144 143 145 148 160 157 175 217 239 261 247
307 304 300 294 292 291 285 280 278 271 272 276 278 281 281 281 281 220 265 31 299 313 172 176 169 161 151 159 155 149 144 146 140 131 135 134 116 106 82 31 314 247 228
303 303 302 297 295 291 288 280 277 270 263 260 263 276 280 274 288 246 233 237 321 329 211 166 158 147 139 186 152 144 146 134 133 139 129 137 141 118 129 194 258 277 283
310 306 305 302 299 296 292 287 278 274 267 255 259 257 266 287 268 273 225 218 250 311 315 218 168 143 148 204 150 138 142 134 140 137 135 163 150 167 171 194 229 264 265
310 306 303 298 293 292 290 284 282 273 272 274 267 260 260 266 279 311 250 217 212 239 292 295 225 146 145 165 180 145 137 143 146 146 150 179 202 200 176 195 223 233 307
314 312 306 301 298 290 283 279 274 275 270 267 266 269 253 258 270 253 283 200 190 232 304 296 292 164 163 154 186 142 121 125 169 176 181 129 147 161 169 177 228 233 235
313 312 306 306 306 299 287 282 278 274 262 252 256 256 264 250 250 284 266 253 195 184 216 246 237 157 143 156 178 171 157 116 127 91 114 138 154 159 178 233 262 252 239
319 318 316 314 312 313 304 291 283 271 255 237 233 246 252 244 242 245 273 257 216 192 195 241 224 186 161 188 186 181 149 107 137 127 143 114 57 257 261 254 207 224 225
324 325 326 324 316 317 313 303 295 288 281 242 218 221 233 234 244 247 247 250 236 215 207 216 228 209 170 112 229 171 174 165 183 145 150 206 197 241 238 237 234 222 229
330 332 332 325 328 321 312 314 324 314 288 218 195 210 212 224 236 237 232 241 169 310 188 207 213 233 172 145 176 215 170 163 161 168 188 206 214 216 224 228 228 215 216